Tracking 29892 objects as of 21-Nov-2024
HD Live streaming from Space Station
objects crossing your sky now

STARLINK-30707

Track STARLINK-30707 now!
10-day predictions
STARLINK-30707 is classified as:


NORAD ID: 57949
Int'l Code: 2023-148Q
Perigee: 481.9 km
Apogee: 482.8 km
Inclination: 53.2 °
Period: 94.1 minutes
Semi major axis: 6853 km
RCS: Unknown
Launch date: September 25, 2023
Source: United States (US)
Launch site: AIR FORCE WESTERN TEST RANGE (AFWTR)
Your satellite tracking list
Your tracking list is empty




NASA's NSSDC Master Catalog

Two Line Element Set (TLE):
1 57949U 23148Q   24324.74050173  .00000651  00000-0  34097-4 0  9993
2 57949  53.1596  70.5004 0000638 119.9806 240.1258 15.30192523 65703
Source of the keplerian elements: AFSPC